Вернуться в каталог

ONEWEB-0133

АктивенСвязьPO
NORAD 47279·PAYLOAD·🇬🇧 United Kingdom

Запущен Dec 18, 2020 с Vostochny Cosmodrome

Loading…

Ближайшие Пролёты (ближайшие 24 часа)

TLE

СвежийSource: CelesTrak SupGP

Эпоха: Sep 14, 2026, 14:29 UTC

1 47279C 20100X   26257.60362685  .00003920  00000+0  10908-1 0  2579
2 47279  87.8998 332.9037 0001985  96.2932   5.6578 13.12441021    12

Отслеживайте ONEWEB-0133 в реальном времени с AllMySat

Download on the App Store